Regional Weather Roundup
Issued by NWS Huntsville, AL

Home | Current Version | Previous Version | Text Only | Print | Product List | Glossary On
Versions: 1 2 3 4 5 6 7 8 9 10 11 12 13 14 15 16 17 18 19 20 21 22 23 24 25 26 27 28 29 30 31 32 33 34 35 36 37 38 39 40 41 42 43 44 45 46 47 48 49 50
000
ASUS44 KHUN 180310
RWRHUN

WEATHER ROUNDUP FOR THE TENNESSEE VALLEY
NATIONAL WEATHER SERVICE HUNTSVILLE AL
1000 PM CDT FRI APR 17 2015

ALZ001>004-180400-
NORTHWEST ALABAMA

CITY           SKY/WX    TMP DP  RH WIND       PRES   REMARKS
BANKHEAD NF      N/A     62  61  97 CALM        N/A
SHOALS AIRPORT PTCLDY    61  58  90 CALM      30.04S
$$

ALZ005>007-016-180400-
NORTH CENTRAL ALABAMA

CITY           SKY/WX    TMP DP  RH WIND       PRES   REMARKS
DECATUR AP     CLOUDY    62  61  96 N5        30.05S
HUNTSVILLE AP  CLOUDY    64  61  90 CALM      30.06R
HUN NWS/UAH      N/A     62  60  91 N1          N/A
MERIDIANVILLE  CLOUDY    61  57  88 CALM      30.06R
REDSTONE ARSN  LGT RAIN  62  61  96 NW2       30.06R
VINEMONT AP    CLOUDY    60  60  98 CALM      30.07R
$$

ALZ008>010-180400-
NORTHEAST ALABAMA

CITY           SKY/WX    TMP DP  RH WIND       PRES   REMARKS
ALBERTVILLE    CLOUDY    61  61 100 CALM      30.05R
FORT PAYNE     CLOUDY    61  57  88 CALM      30.04R
SCOTTSBORO AP  CLOUDY    59  59 100 CALM      30.06R
SCOTTSBORO HCN   N/A     61 N/A N/A MISG        N/A
VALLEY HEAD      N/A     59 N/A N/A MISG        N/A
$$

TNZ076-096-097-180400-
SOUTHEASTERN MIDDLE TENNESSEE

CITY           SKY/WX    TMP DP  RH WIND       PRES   REMARKS
TULLAHOMA      CLOUDY    63  59  88 CALM      30.06R
WINCHESTER     PTCLDY    61  59  94 CALM      30.05S
$$

...SURROUNDING SITES...

CITY           SKY/WX    TMP DP  RH WIND       PRES   REMARKS
ATLANTA        LGT RAIN  63  60  90 E7        30.03F FOG
ANNISTON       CLOUDY    62  60  93 E3        30.02R
BIRMINGHAM     CLOUDY    61  60  97 NE7       30.04R
CHATTANOOGA    CLOUDY    61  60  97 CALM      30.05R
CORINTH        CLOUDY    66  61  82 SE5       30.03S
DALTON         CLOUDY    59  59 100 CALM      30.05R FOG
GADSDEN        CLOUDY    63  57  82 NE8       30.03R
GOLDEN TRNGL   MOCLDY    64  61  88 NE5       30.01S
HALEYVILLE       N/A     61  61 100 CALM      30.06S FOG
JACKSON TN     CLEAR     59  57  93 S3        30.02F FOG
MEMPHIS        PTCLDY    67  62  84 E7        30.02R
NASHVILLE      MOCLDY    62  59  90 S5        30.03R
OXFORD MS      FAIR      63  61  94 NE8       30.04S
ROME           CLOUDY    62  61  96 NE3       30.03R
SAVANNAH       CLOUDY    64  32  29 CALM      30.04S
TUPELO         CLEAR     62  60  93 NE3       30.02F
TUSCALOOSA     CLOUDY    64  61  90 N8        30.01S
$$

...GULF COAST WEATHER...

CITY           SKY/WX    TMP DP  RH WIND       PRES   REMARKS
GULFPORT       MOCLDY    72  70  93 CALM      29.95R
PASCAGOULA     CLOUDY    73  71  93 CALM      29.96R
MOBILE         CLOUDY    72  68  87 W3        29.98S
GULF SHORES    MOCLDY    71  70  98 CALM      29.96S
PENSACOLA      MOCLDY    70  69  97 CALM      29.96R FOG
DESTIN         MOCLDY    75  70  84 SW6       29.97R
PANAMA CITY    CLOUDY    75  72  88 VRB2G18   29.98  FOG
APPALACHICOLA  CLOUDY    77  73  87 SE6       29.98S
$$



USA.gov is the U.S. government's official web portal to all federal, state and local government web resources and services.